Location: Holcomb Observatory
(44.4922°N, 73.1654°W)
Time: 04:21:04
(UTC-04:00)

Daily predictions for brighter satellites

Satellite Brightness Start Highest point End
(mag) Time Altitude Azimuth Time Altitude Azimuth Time Altitude Azimuth
CZ-4 R/B 3.8 00:00:31 10° NNE 00:05:34 88° WNW 00:06:23 63° SSW
Cosmos 923 Rocket 4.1 00:07:50 54° ESE 00:08:12 56° ESE 00:13:20 10° NNE
Cosmos 1680 Rocket 4.0 00:09:10 43° ESE 00:09:16 43° ESE 00:14:12 10° NNE
Cosmos 2237 Rocket 2.3 00:04:24 10° NNW 00:10:02 61° WSW 00:11:02 52° SSW
Cosmos 2082 3.6 00:16:48 57° SSW 00:18:01 83° ESE 00:23:48 10° NNE
CZ-4B R/B 3.5 00:15:01 10° NNE 00:20:05 62° ESE 00:20:34 59° SE
Cosmos 1378 3.6 00:22:47 61° N 00:22:47 61° N 00:25:58 10° N
H-2A R/B 2.0 00:26:57 79° ENE 00:26:57 79° ENE 00:31:13 10° N
USA 229 DEB 4.2 00:26:17 38° SE 00:26:58 39° ESE 00:33:15 10° NE
USA 229 4.2 00:26:25 38° SE 00:27:05 39° ESE 00:33:20 10° NE
COBE Rocket 4.5 00:22:51 10° N 00:27:22 48° WNW 00:28:22 41° WSW
Mayak -1.3 00:23:28 10° NNE 00:27:37 84° NNW 00:27:37 84° NNW
ERBS 3.8 00:24:59 10° NW 00:27:04 35° NW 00:27:04 35° NW
Cosmos 2266 Rocket 4.0 00:24:59 10° N 00:31:20 77° W 00:33:02 51° SSW
Cosmos 2084 Rocket 4.5 00:29:07 10° NW 00:31:42 33° WNW 00:31:42 33° WNW
Meteor 2-11 Rocket 4.4 00:32:08 53° SSW 00:33:42 81° W 00:39:48 10° N
CZ-4C R/B 4.3 00:41:37 10° WNW 00:47:04 22° WSW 00:48:29 21° SW
Cosmos 1400 Rocket 3.0 00:53:58 71° NE 00:53:58 71° NE 00:57:45 10° NNE
COSMOS 2455 3.5 00:50:51 28° WSW 00:53:49 52° NW 00:59:44 10° NNE
Cosmos 1825 Rocket 3.5 00:54:50 81° ENE 00:54:50 81° ENE 00:59:11 10° N
Cosmos 2219 Rocket 4.4 00:57:15 10° W 00:58:42 11° W 00:59:19 11° WSW
Cosmos 1238 Rocket 3.0 01:05:17 89° NW 01:05:17 89° NW 01:09:19 10° N
Cosmos 1818 4.3 01:13:59 32° WSW 01:16:09 49° NW 01:21:28 10° NNE
Meteor 1-24 Rocket 3.7 01:15:29 57° SSE 01:16:40 76° E 01:22:35 10° NNE
Cosmos 1244 Rocket 4.5 01:11:48 10° N 01:18:04 75° W 01:19:42 52° SSW
ALOS 2 4.4 01:23:42 20° W 01:23:42 20° W 01:26:38 10° NW
Meteor 2-5 Rocket 3.9 01:22:13 49° SW 01:23:37 65° WNW 01:29:32 10° N
Cosmos 1745 Rocket 4.2 01:18:50 10° N 01:25:11 68° E 01:27:28 41° SSE
Cosmos 1943 4.0 01:19:43 10° NNW 01:25:14 47° ENE 01:28:31 23° ESE
Cosmos 2263 Rocket 3.2 01:24:40 31° SE 01:25:39 33° ESE 01:30:40 10° NE
SL-16 R/B 2.9 01:21:24 10° NW 01:26:32 36° WSW 01:26:44 36° WSW
Cosmos 1371 Rocket 4.0 01:22:04 10° NNW 01:27:16 61° WSW 01:27:40 59° SW
Cosmos 1315 Rocket 2.9 01:28:22 72° N 01:28:22 72° N 01:31:58 10° N
ISS -1.4 01:26:46 10° NW 01:27:41 17° NW 01:27:41 17° NW
Cosmos 1842 Rocket 4.4 01:26:22 10° N 01:30:31 41° ENE 01:31:17 37° ESE
Cosmos 1908 3.4 01:28:16 10° N 01:31:47 65° NE 01:31:47 65° NE
Cosmos 1300 4.3 01:36:55 10° NNE 01:40:13 27° ENE 01:40:59 25° E
Cosmos 1726 2.6 01:36:53 10° N 01:40:17 56° ENE 01:40:17 56° ENE
Cosmos 1452 Rocket 3.9 01:36:44 10° NNW 01:41:58 59° ENE 01:44:06 34° SE
S3M 3.9 01:41:11 49° S 01:43:00 88° W 01:49:19 10° N
Cosmos 1437 4.0 01:40:33 10° N 01:42:39 39° N 01:42:39 39° N
Cosmos 1953 Rocket 4.2 01:43:34 42° W 01:43:43 42° WNW 01:47:52 10° N
Cosmos 2056 Rocket 3.6 01:39:10 10° NNW 01:44:09 53° WSW 01:44:26 53° WSW
Cosmos 158 Rocket 4.5 01:43:12 43° SE 01:44:16 50° ESE 01:49:29 10° NNE
ADEOS Rocket 4.0 01:39:53 10° N 01:44:40 31° WNW 01:46:45 24° W
Cosmos 2297 Rocket 4.2 01:41:29 11° W 01:45:29 21° NW 01:49:45 10° N
Cosmos 1346 Rocket 2.8 01:41:41 10° NNW 01:45:13 72° NNW 01:45:13 72° NNW
CZ-4C R/B 3.6 01:49:10 52° N 01:49:10 52° N 01:51:48 10° N
Cosmos-2242 3.6 01:44:57 10° NNW 01:48:51 44° W 01:48:51 44° W
Cosmos 2227 Rocket 4.4 01:45:13 10° W 01:49:06 19° NW 01:53:02 10° N
Cosmos 1386 Rocket 4.4 01:48:28 10° N 01:54:51 89° W 01:57:06 43° S
NOSS 3-1 (C) 3.3 01:56:13 49° SSW 01:57:56 86° SE 02:04:25 10° NE
Cosmos 1603 3.7 01:52:43 10° NNW 01:58:17 60° WSW 01:59:24 50° SSW
Landsat 5 3.4 01:59:11 63° SE 01:59:41 73° ENE 02:03:42 10° N
Meteor 2-13 Rocket 4.3 01:55:13 10° N 02:01:17 80° W 02:03:18 45° S
Cosmos 1709 Rocket 4.3 01:55:43 10° N 02:02:06 66° E 02:05:21 30° SSE
Cosmos 1420 Rocket 3.9 02:05:18 10° NNW 02:10:33 88° ENE 02:12:23 42° SSE
Cosmos 2285 Rocket 4.2 02:11:29 36° S 02:14:02 61° ESE 02:20:18 10° NNE
SL-14 R/B 3.3 02:15:20 63° SE 02:15:40 66° E 02:19:29 10° NNE
CZ-4B R/B 1.5 02:15:56 76° NNW 02:15:56 76° NNW 02:19:07 10° NNW
USA 229 DEB 4.3 02:13:42 23° WSW 02:17:46 50° NW 02:24:33 10° NNE
USA 229 4.3 02:13:49 23° WSW 02:17:52 51° NW 02:24:39 10° NNE
SeaSat 1 4.0 02:14:07 10° ESE 02:18:34 35° NE 02:23:02 10° NNW
NOSS 3-1 (A) 3.3 02:16:40 43° SSW 02:18:42 84° SE 02:25:14 10° NE
Cosmos 1626 3.1 02:22:28 34° ESE 02:23:11 38° E 02:26:40 10° NNE
Cosmos 1076 Rocket 4.2 02:22:38 35° SE 02:23:55 47° E 02:28:06 10° NNE
Spot 2 4.3 02:20:05 10° NNE 02:25:12 84° WNW 02:26:39 47° SSW
Cosmos 1674 4.0 02:26:46 27° WNW 02:26:47 27° WNW 02:30:01 10° NNW
CZ-2D R/B 3.1 02:22:19 10° NNE 02:27:10 38° E 02:29:48 23° SSE
USA 267 4.2 02:21:28 10° ENE 02:27:13 32° SE 02:29:44 25° SSE
Meteor 1-21 Rocket 4.3 02:30:51 39° SSW 02:33:09 74° WNW 02:39:07 10° N
Cosmos 1689 Rocket 2.8 02:34:06 47° NW 02:34:06 47° NW 02:36:38 10° NNW
SL-08 R/B 3.8 02:31:46 22° SE 02:34:56 61° ENE 02:39:47 10° N
Cosmos 2221 2.5 02:32:13 10° NNW 02:36:37 75° W 02:37:43 49° SSW
ARIANE 5 R/B 4.0 02:33:41 10° NE 02:38:06 29° E 02:41:22 15° SSE
Cosmos 1340 2.9 02:35:25 10° NNW 02:39:05 50° W 02:39:08 50° W
Genesis I 3.2 02:38:54 59° S 02:39:34 77° ESE 02:43:36 10° NE
Meteor 2-19 Rocket 4.4 02:37:44 10° N 02:43:51 87° E 02:47:41 24° S
Resurs 1-4 Rocket 2.5 02:40:34 10° NNE 02:45:48 58° E 02:48:39 27° S
Aureole 1 Rocket 2.9 02:50:34 40° WNW 02:50:39 40° WNW 02:53:30 10° N
Cosmos 1844 Rocket 3.9 02:47:20 19° SSE 02:50:42 35° ESE 02:55:48 10° NE
IRS-P3 4.1 02:48:14 10° NNE 02:53:36 85° ESE 02:56:17 31° S
OAO 2 Rocket 4.5 02:54:01 25° SSE 02:54:01 25° SSE 02:57:38 10° ESE
NPP 3.6 02:50:56 10° NNE 02:56:21 84° WNW 02:59:02 31° SSW
DELTA 2 R/B (1) 3.9 02:55:45 26° WSW 02:58:20 42° SSW 03:03:35 10° SE
PSLV R/B 4.4 02:57:01 17° SSE 03:00:07 60° ENE 03:04:17 10° N
MOZ.5/SAFIR/RUBIN 5/SL-8 4.0 02:59:01 15° SSE 03:02:53 71° ENE 03:07:38 10° N
SL-16 R/B 2.5 03:00:50 20° S 03:05:21 73° WSW 03:11:35 10° NNW
ADEOS II 4.2 03:01:31 10° NE 03:05:25 21° E 03:09:18 10° SE
Cosmos 1943 4.1 03:04:15 10° NW 03:09:01 28° WSW 03:10:17 26° SW
Cosmos 1703 3.4 03:07:23 30° S 03:09:15 70° E 03:13:12 10° NNE
Cosmos 2263 Rocket 3.0 03:06:21 23° WSW 03:09:27 41° WNW 03:14:50 10° NNE
Cosmos 2315 Rocket 4.5 03:06:43 26° SW 03:09:51 47° WNW 03:15:52 10° N
Cosmos 1766 Rocket 3.6 03:08:01 28° S 03:10:14 78° E 03:14:38 10° N
GEOS 3 Rocket 4.2 03:05:11 10° NNE 03:10:22 51° NW 03:13:41 21° WSW
Cosmos 921 Rocket 2.9 03:06:18 10° NNW 03:10:35 72° WSW 03:13:09 24° S
NOSS 2-3 (D) 3.9 03:10:35 31° SSW 03:12:50 75° ESE 03:18:12 10° NE
BREEZE M DEB (TANK) 3.2 03:10:48 22° SW 03:15:36 57° SSE 03:18:46 10° ENE
Cosmos 1300 4.2 03:12:49 10° NW 03:15:45 21° W 03:15:57 21° W
Cosmos 1331 Rocket 4.0 03:10:55 10° NNW 03:16:06 86° ENE 03:21:16 10° SSE
Meteor 1-11 4.2 03:14:14 23° S 03:17:54 88° E 03:23:35 10° N
Cosmos 1269 Rocket 4.2 03:16:04 27° SW 03:18:55 62° WNW 03:24:12 10° NNE
UNKNOWN OBJECT B 4.2 03:16:46 10° NNE 03:20:09 31° E 03:23:12 12° SSE
H-2A R/B 2.9 03:20:10 10° N 03:24:33 55° WNW 03:26:47 26° SW
Cosmos 1515 Rocket 4.4 03:21:30 10° N 03:25:45 50° ENE 03:29:58 10° SSE
Meteor 2-2 Rocket 4.3 03:20:08 10° NNW 03:25:51 63° W 03:30:15 17° S
Cosmos 1455 2.0 03:22:20 10° N 03:26:06 78° W 03:28:26 22° S
COSMOS 2406 3.7 03:25:33 10° NNW 03:31:19 65° ENE 03:37:03 10° SE
Cosmos 2251 Rocket 4.1 03:27:52 15° S 03:32:13 54° ESE 03:37:27 10° NNE
NOSS 2-3 (E) 3.9 03:30:40 24° SW 03:33:31 73° NW 03:39:01 10° NE
Helios 1A Rocket 3.6 03:29:43 10° NNE 03:33:43 50° E 03:37:08 13° S
Geosat 4.0 03:31:55 10° NNE 03:36:59 83° ESE 03:40:39 19° SSW
Cosmos 1408 Rocket 3.6 03:34:24 23° SSW 03:37:02 66° W 03:41:23 10° N
ADEOS 4.1 03:32:25 10° NNE 03:37:34 56° E 03:42:40 10° S
Cosmos 2058 2.9 03:34:44 19° S 03:37:42 88° E 03:41:57 10° N
Cosmos 1151 Rocket 3.3 03:33:42 10° N 03:38:05 68° E 03:42:24 10° SSE
ATLAS 2AS CENTAUR R/B 3.7 03:35:04 12° S 03:42:00 49° ESE 03:49:43 10° NE
CRYOSAT 2 4.4 03:39:49 14° S 03:43:57 68° W 03:48:51 10° N
CZ-2D R/B 3.8 03:42:39 10° NNE 03:47:06 72° ESE 03:51:12 12° S
Cosmos 2074 Rocket 4.3 03:42:09 10° NNW 03:48:03 47° W 03:53:18 13° SSW
Cosmos 1607 4.4 03:44:19 10° NW 03:50:14 40° WSW 03:56:02 10° S
Nadezhda 1 Rocket 4.1 03:45:18 15° SSW 03:50:35 69° W 03:56:54 10° N
SAR-Lupe-2 3.6 03:48:38 13° S 03:51:41 58° W 03:55:13 10° NNW
Cosmos 2184 Rocket 4.4 03:47:31 10° NNW 03:53:33 45° W 03:59:10 12° SSW
Spot 4 Rocket 4.3 03:50:53 10° N 03:55:55 56° WNW 04:00:05 15° SW
SeaSat 1 3.0 03:51:32 10° S 03:56:02 36° WSW 04:00:35 10° NW
Cosmos 2154 Rocket 4.0 03:49:48 10° NNW 03:56:05 74° W 04:02:23 10° S
Cosmos 1626 4.2 03:57:05 12° W 03:58:42 15° WNW 04:00:55 10° NNW
CZ-2D R/B 3.2 04:02:38 10° N 04:07:06 30° WNW 04:11:07 12° WSW
Cosmos 1743 Rocket 3.6 04:04:18 12° SSW 04:08:12 61° W 04:12:30 10° N
Cosmos 1295 Rocket 4.5 04:04:00 10° N 04:10:07 86° W 04:16:15 10° S
USA 267 3.4 04:04:04 10° NE 04:10:37 79° NW 04:17:05 10° WSW
Cosmos 2151 3.4 04:07:27 13° SSW 04:11:05 48° WNW 04:15:18 10° N
ARIANE 5 R/B 3.3 04:12:36 10° N 04:17:15 37° WNW 04:21:43 11° SW
Cosmos 405 Rocket 2.7 04:14:03 10° NNW 04:17:53 64° W 04:21:36 10° S
ATLAS 3B R/B 3.2 04:14:48 10° NNW 04:21:27 65° NE 04:27:56 10° SE
Cosmos 1805 Rocket 4.4 04:18:24 10° S 04:22:36 52° E 04:26:49 10° NNE
Cosmos 2218 Rocket 4.4 04:16:29 10° N 04:22:39 68° E 04:28:45 10° SSE
Meteor 2-10 Rocket 3.5 04:18:45 10° NNW 04:23:45 63° W 04:28:41 10° S
Resurs 1-4 Rocket 3.7 04:21:17 10° NNW 04:25:12 22° WNW 04:29:09 10° WSW
BREEZE-M DEB (TANK) 3.3 04:19:53 10° WSW 04:26:52 67° SSE 04:29:53 10° ENE
Cosmos 220 Rocket 4.3 04:24:21 10° SW 04:28:36 54° WNW 04:32:51 10° NNE
CZ-4B R/B 4.4 04:29:11 10° NNE 04:32:27 31° E 04:35:44 10° SSE
Cosmos 1844 Rocket 3.5 04:29:15 10° SW 04:34:32 39° NW 04:39:50 10° NNE
OAO 2 Rocket 4.4 04:33:34 10° WSW 04:37:40 26° S 04:41:43 10° SE
Cosmos 1707 Rocket 4.1 04:37:11 10° N 04:41:39 67° E 04:46:05 10° SSE
